Flag for U.S.A. Weather past 2 weeks in Scottsdale, Arizona, U.S.A.

Now
62 °F

Heavy rain. Overcast.


Feels Like: 62 °F
Forecast: 54 / 62 °F
Wind: 3 mph from South

Location: Scottsdale Airport

Current Time: Feb 28, 2015 at 8:21:21 PM

Latest Report: Feb 28, 2015 at 7:53 PM


Visibility: 4 mi

Pressure: 29.84 "Hg

Humidity: 60%

Dew point: 48 °F

Location of ScottsdaleLocation

Historic Weather in Scottsdale — Graph

°F

Scottsdale temperature yesterday

Maximum temperature yesterday: 73 °F (at 2:53 PM)
Minimum temperature yesterday: 49 °F (at 4:53 AM)
Average temperature yesterday: 63 °F

Past Weeks' High & Low Weather Summary

 TemperatureHumidityPressure
High82 °F (Feb 14, 2:53 PM)86% (Feb 24, 1:53 AM)30.18 "Hg (Feb 24, 1:53 AM)
Low45 °F (Feb 25, 5:53 AM)8% (Feb 17, 3:53 PM)29.59 "Hg (Feb 27, 4:53 PM)
Average63 °F40%29.92 "Hg
* Reported Feb 13 6:53 PM — Feb 28 6:53 PM, Scottsdale, Weather by CustomWeather, © 2015

Note: Actual official high and low records may vary slightly from our data, if they occured in-between our weather recording intervals... More about our weather records

Advertising

Scottsdale weather history for previous 24 hours

 ConditionsComfort  
Time TempWeatherWind HumidityBarometerVisibility
6:53 PM
Sat, Feb 28
64 °FOvercast.3 mph49%29.81 "Hg10 mi
5:53 PM67 °FPartly sunny.5 mph37%29.79 "Hg10 mi
4:53 PM67 °FOvercast.6 mph41%29.79 "Hg10 mi
3:53 PM66 °FOvercast.12 mph42%29.78 "Hg10 mi
2:53 PM65 °FOvercast.5 mph45%29.78 "Hg10 mi
1:53 PM64 °FOvercast.6 mph47%29.79 "Hg10 mi
12:53 PM65 °FPartly sunny.16 mph44%29.80 "Hg10 mi
11:53 AM64 °FBroken clouds.8 mph50%29.81 "Hg10 mi
10:53 AM62 °FMostly cloudy.9 mph54%29.80 "Hg10 mi
9:53 AM60 °FPartly sunny.10 mph56%29.80 "Hg10 mi
8:53 AM59 °FOvercast.No wind60%29.79 "Hg10 mi
7:53 AM58 °FOvercast.No wind58%29.76 "Hg10 mi
6:53 AM58 °FOvercast.No wind60%29.73 "Hg10 mi
5:53 AM59 °FMostly cloudy.No wind54%29.71 "Hg10 mi
4:53 AM58 °FMostly cloudy.No wind56%29.70 "Hg10 mi
3:53 AM58 °FOvercast.3 mph54%29.69 "Hg10 mi
2:53 AM58 °FPassing clouds.No wind51%29.69 "Hg10 mi
1:53 AM61 °FOvercast.No wind41%29.68 "Hg10 mi
12:53 AM62 °FOvercast.3 mph39%29.67 "Hg10 mi
11:53 PM
Fri, Feb 27
64 °FPassing clouds.5 mph38%29.65 "Hg10 mi
10:53 PM65 °FClear.8 mph34%29.65 "Hg10 mi
9:53 PM67 °FClear.9 mph33%29.64 "Hg10 mi
8:53 PM68 °FClear.6 mph35%29.63 "Hg10 mi
Weather by CustomWeather, © 2015

See weather overviewHow to use our weather pages